Simultaneous Nadir Overpasses (SNOs) Predictions

Prediction of SNOs between NOAA-20 and LANDSAT-8 Satellite Orbit:

Table of predicted SNOs for the next 14.0 days since TLE Epoch: 9/10/2022
Index Date (NOAA-20) Time (NOAA-20) Lat,Lon (NOAA-20) SZA (NOAA-20 ) Date (LANDSAT-8) Time (LANDSAT-8) Lat,Lon (LANDSAT-8) SZA (LANDSAT-8 ) Distance(km) Time Diff (sec)
1 09/10/2022 15:06:06 -70.09, 129.80 114.78 09/10/2022 15:07:16 -70.09, 129.75 114.79 1.81 70
2 09/10/2022 15:56:50 70.01, -62.78 65.16 09/10/2022 15:56:42 69.99, -62.75 65.13 2.81 8
3 09/10/2022 16:47:27 -69.67, 105.05 115.18 09/10/2022 16:46:14 -69.76, 104.58 115.08 21.03 73
4 09/13/2022 07:23:01 -70.07,-114.41 113.78 09/13/2022 07:23:46 -70.05,-114.43 113.81 1.98 45
5 09/13/2022 08:13:45 69.94, 53.10 66.10 09/13/2022 08:13:13 69.95, 53.07 66.11 1.23 32
6 09/15/2022 22:49:28 70.81,-167.15 68.00 09/15/2022 22:50:36 70.71,-165.21 67.86 71.89 68
7 09/15/2022 23:39:57 -70.05, 1.38 112.78 09/15/2022 23:40:16 -70.05, 1.46 112.78 2.95 19
8 09/16/2022 00:30:41 69.92, 168.88 67.11 09/16/2022 00:29:44 69.89, 168.87 67.08 3.45 57
9 09/18/2022 15:06:11 70.12, -50.28 68.32 09/18/2022 15:07:17 70.10, -50.24 68.29 3.10 66
10 09/18/2022 15:56:52 -69.98, 117.25 111.82 09/18/2022 15:56:47 -69.99, 117.25 111.81 1.25 5
11 09/18/2022 16:47:30 69.54, -74.79 67.75 09/18/2022 16:46:19 69.60, -75.64 67.83 33.76 71
12 09/21/2022 07:23:05 70.06, 65.58 69.29 09/21/2022 07:23:46 70.07, 65.61 69.30 1.90 41
13 09/21/2022 08:13:47 -69.97,-126.97 110.79 09/21/2022 08:13:16 -69.97,-126.90 110.79 2.79 31
14 09/23/2022 22:49:30 -70.85, 12.77 108.87 09/23/2022 22:50:38 -70.75, 14.85 109.00 76.72 68
15 09/23/2022 23:40:00 70.00,-178.58 70.27 09/23/2022 23:40:17 69.98,-178.64 70.25 3.44 17
16 09/24/2022 00:30:42 -69.91, -11.12 109.81 09/24/2022 00:29:47 -69.88, -11.14 109.84 3.22 55



Historial Predications of SNOs between NOAA-20 and LANDSAT-8
